Home > Weather > Völklingen > Past weeks

Flag for Germany Past Weather in Völklingen, Saarland, Germany — Yesterday and Last 2 Weeks

Now
91 °F

Sunny.


Feels Like: 90 °F
Forecast: 66 / 84 °F
Wind: 5 mph from North

Location: Saarbruecken / Ensheim

Current Time: Aug 27, 2016 at 3:44:16 PM

Latest Report: Aug 27, 2016 at 3:20 PM


Visibility: 10 mi

Pressure: 30.04 "Hg

Humidity: 32%

Dew Point: 57 °F

Location of VölklingenLocation

Past Weather in Völklingen — Graph

°F

Völklingen Temperature Yesterday

Maximum temperature yesterday: 93 °F (at 4:50 PM)
Minimum temperature yesterday: 63 °F (at 5:20 AM)
Average temperature yesterday: 77 °F

High & Low Weather Summary for the Past Weeks

 TemperatureHumidityPressure
High93 °F (Aug 26, 4:50 PM)100% (Aug 13, 2:20 AM)30.39 "Hg (Aug 13, 2:20 AM)
Low50 °F (Aug 22, 6:50 AM)31% (Aug 24, 2:50 PM)29.83 "Hg (Aug 18, 4:20 AM)
Average68 °F71%30.10 "Hg
* Reported Aug 12 2:20 PM — Aug 27 2:20 PM, Völklingen, Weather by CustomWeather, © 2016

Note: Actual official high and low records may vary slightly from our data, if they occured in-between our weather recording intervals... More about our weather records

Advertising

Völklingen Weather History for the Previous 24 Hours

Scroll right to see more
 ConditionsComfort  
Time TempWeatherWind HumidityBarometerVisibility
2:20 PM
Sat, Aug 27
91 °FPassing clouds.6 mph36%30.07 "HgN/A
1:50 PM91 °FPassing clouds.8 mph38%30.07 "HgN/A
1:20 PM90 °FSunny.6 mph41%30.07 "Hg10 mi
12:50 PM90 °FSunny.5 mph38%30.07 "Hg10 mi
12:20 PM88 °FPassing clouds.6 mph43%30.09 "HgN/A
11:50 AM86 °FSunny.3 mph52%30.09 "Hg10 mi
11:20 AM84 °FPassing clouds.5 mph55%30.09 "HgN/A
10:50 AM84 °FPassing clouds.5 mph55%30.09 "HgN/A
10:20 AM81 °FPassing clouds.5 mph66%30.09 "HgN/A
9:50 AM79 °FPassing clouds.5 mph65%30.09 "HgN/A
9:20 AM77 °FSunny.5 mph69%30.09 "Hg10 mi
8:50 AM77 °FPassing clouds.3 mph69%30.09 "HgN/A
8:20 AM73 °FSunny.2 mph83%30.09 "Hg10 mi
7:50 AM70 °FSunny.5 mph88%30.07 "Hg10 mi
7:20 AM68 °FClear.5 mph88%30.07 "Hg10 mi
6:50 AM68 °FClear.6 mph88%30.07 "Hg10 mi
6:20 AM68 °FClear.3 mph88%30.07 "Hg10 mi
5:20 AM68 °FClear.3 mph83%30.07 "Hg10 mi
4:50 AM68 °FClear.3 mph83%30.07 "Hg10 mi
4:20 AM68 °FClear.5 mph83%30.07 "Hg10 mi
3:50 AM70 °FClear.5 mph78%30.07 "Hg10 mi
3:20 AM70 °FClear.5 mph78%30.07 "Hg10 mi
2:50 AM70 °FClear.2 mph78%30.07 "Hg10 mi
2:20 AM70 °FClear.1 mph78%30.07 "Hg10 mi
1:50 AM72 °FClear.2 mph73%30.07 "Hg10 mi
1:20 AM72 °FClear.5 mph78%30.07 "Hg10 mi
12:50 AM72 °FClear.5 mph78%30.07 "Hg10 mi
12:20 AM72 °FPassing clouds.3 mph73%30.07 "HgN/A
11:50 PM
Fri, Aug 26
73 °FClear.2 mph69%30.07 "Hg10 mi
11:20 PM73 °FClear.3 mph69%30.07 "Hg10 mi
10:50 PM75 °FClear.2 mph65%30.07 "Hg10 mi
10:20 PM75 °FClear.1 mph65%30.07 "Hg10 mi
9:50 PM77 °FClear.1 mph61%30.07 "Hg10 mi
9:20 PM79 °FSunny.2 mph58%30.07 "Hg10 mi
8:50 PM81 °FSunny.2 mph58%30.07 "Hg10 mi
8:20 PM84 °FSunny.2 mph51%30.04 "Hg10 mi
7:50 PM86 °FPassing clouds.5 mph49%30.04 "HgN/A
7:20 PM90 °FPassing clouds.5 mph41%30.04 "HgN/A
6:50 PM90 °FPassing clouds.3 mph38%30.04 "HgN/A
6:20 PM91 °FSunny.1 mph34%30.04 "Hg10 mi
5:50 PM93 °FSunny.2 mph32%30.04 "Hg10 mi
5:20 PM91 °FSunny.3 mph36%30.04 "Hg10 mi
4:50 PM93 °FSunny.2 mph34%30.04 "Hg10 mi
4:20 PM91 °FPassing clouds.7 mph36%30.04 "HgN/A
3:50 PM91 °FPassing clouds.7 mph38%30.07 "HgN/A
3:20 PM91 °FSunny.6 mph34%30.07 "Hg10 mi
Weather by CustomWeather, © 2016

See weather overviewHow to use our weather pages